Location: Newark
(45.5167°N, 11.1667°E)
Time: 04:41:34
(UTC+00:00)

Explorer 7 - Pass Details

Date: 15 December 2019
Orbit: 485 x 679 km, 50.3° (Epoch: 28 January)

Event Time Altitude Azimuth Distance (km) Brightness Sun altitude
Rises 13:33:05 0° 234° (SW) 2,925 12.0 13.9°
Reaches altitude 10° 13:35:23 10° 231° (SW) 2,044 11.5 13.7°
Maximum altitude 13:40:05 69° 150° (SSE) 716 7.8 13.3°
Drops below altitude 10° 13:44:58 10° 67° (ENE) 2,116 9.3 12.8°
Sets 13:47:22 0° 65° (ENE) 3,037 10.1 12.5°
